Location: Dimsdale
(55.1333°N, 118.9833°W)
Time: 09:58:17
(UTC+00:00)

SO-50 - Pass Details

Date: 13 December 2023
Orbit: 608 x 660 km, 64.6° (Epoch: 02 March)

Event Time Altitude Azimuth Distance (km) Brightness Sun altitude
Exits shadow 12:44:47 23° 19° (NNE) 1,360 ? -28.0°
Drops below altitude 10° 12:47:18 10° 48° (NE) 2,026 ? -27.7°
Sets 12:49:52 0° 61° (ENE) 2,924 ? -27.3°
